Theta_e
308 310 311 311 310 310 311 312 314 313 311 309 309 308 306 306 305 304 303 302 302 301 303 304 304 304 305 303 301 300 300 299 295 293 292 291 291 291 291 290 290 290 289
309 310 310 310 310 310 309 310 311 313 312 310 309 307 305 304 305 305 303 301 300 300 300 301 302 303 303 302 301 300 299 299 295 291 290 290 290 291 290 289 289 288 288
309 309 309 309 309 310 310 309 310 311 311 308 307 306 305 305 305 305 302 301 299 297 297 298 299 299 301 302 301 300 299 298 295 292 290 289 289 289 288 288 288 287 287
307 307 307 307 307 307 308 309 310 311 311 310 308 307 305 304 304 303 301 300 299 296 295 294 296 299 301 301 301 299 297 296 294 291 290 288 288 287 287 287 286 286 286
307 307 307 307 307 307 307 307 308 310 310 309 309 308 306 304 303 302 300 299 297 295 294 293 295 296 298 300 301 300 298 295 292 290 290 289 287 286 286 285 285 285 285
305 304 301 302 305 306 307 307 307 308 308 307 308 306 303 302 303 303 300 298 297 295 294 294 295 296 297 298 299 300 298 294 292 291 290 289 287 287 286 285 284 284 285
303 302 302 303 305 306 307 308 307 307 306 305 304 304 304 303 302 302 300 298 297 295 294 294 295 295 296 297 298 299 298 297 296 293 291 291 288 287 287 285 285 285 285
303 303 302 303 304 306 306 306 307 306 304 305 303 302 301 302 301 300 299 297 297 296 295 295 295 295 295 296 297 298 298 297 298 297 297 297 294 291 291 288 286 285 286
303 302 302 303 304 303 303 305 305 305 303 303 303 303 302 302 302 300 298 296 296 295 294 294 294 295 294 295 296 296 295 295 296 294 294 295 293 292 290 288 285 285 284
302 302 302 302 302 301 301 303 304 304 303 304 304 303 303 302 301 299 297 295 295 294 293 294 294 294 292 293 295 297 295 295 295 293 292 292 291 291 291 292 289 286 286
301 302 301 300 300 301 302 301 300 300 301 301 301 300 300 300 299 297 296 295 294 293 293 292 293 292 292 293 293 294 295 295 296 294 293 292 290 290 289 290 291 290 287
301 299 299 298 298 299 299 298 298 297 297 297 297 296 296 296 296 296 296 295 294 293 292 292 292 293 294 294 291 292 294 295 294 295 292 290 290 290 289 290 291 291 291
300 300 300 301 298 298 298 297 296 295 294 293 293 292 292 293 294 294 294 294 293 293 293 293 292 293 291 290 290 290 290 292 293 292 290 290 291 292 290 290 290 290 291
300 299 299 298 297 297 296 295 295 294 293 292 291 291 291 291 291 292 292 292 291 291 291 291 291 290 289 289 288 289 289 290 293 294 293 292 290 291 290 290 289 289 289
301 300 298 297 297 296 296 294 294 293 292 292 291 291 290 289 290 291 291 290 290 290 290 289 289 288 288 287 287 287 288 288 289 290 289 288 288 289 289 289 289 288 288
300 300 299 297 296 296 295 294 293 293 292 292 291 291 291 291 290 289 290 290 290 290 289 287 287 287 287 287 286 286 287 287 288 287 287 288 288 288 288 287 289 288 288
296 298 297 297 297 295 294 293 292 293 292 292 291 291 291 291 290 289 289 289 289 289 287 286 285 286 286 287 286 286 286 286 286 286 286 286 286 286 287 286 287 287 286
297 299 298 297 296 295 294 294 293 292 291 291 291 290 291 291 290 289 288 289 288 288 288 287 286 286 286 286 285 285 285 285 285 284 284 284 284 284 284 284 284 285 285
295 296 294 296 296 295 294 293 293 292 291 291 291 290 290 291 290 289 288 288 287 287 287 286 287 287 286 285 284 284 284 285 285 284 284 284 284 284 283 283 282 282 282
294 295 295 295 293 293 293 293 292 292 291 291 290 290 290 290 288 288 287 288 287 287 287 287 287 287 286 284 283 282 282 283 283 284 284 285 285 285 284 284 284 283 283
292 294 294 294 292 292 292 292 292 291 291 291 291 291 290 290 289 288 287 287 287 287 287 287 287 288 288 287 285 284 284 282 281 281 281 283 284 284 285 285 285 285 285
290 291 292 292 292 291 291 291 291 291 290 290 290 290 290 289 289 289 288 288 288 287 287 287 286 287 288 287 287 286 285 284 283 283 283 283 282 281 283 284 284 284 284
289 291 291 291 291 291 290 290 290 290 290 290 290 290 290 289 289 289 289 288 288 288 287 287 287 286 286 287 287 287 286 285 285 285 285 284 284 283 282 282 283 283 283
289 290 291 291 290 290 289 288 288 288 288 288 288 288 288 288 288 288 288 288 288 287 287 287 287 286 286 286 286 286 286 286 286 286 286 286 285 284 284 283 283 283 283
288 289 289 288 288 288 288 287 286 286 285 285 285 285 286 287 287 286 286 287 287 287 286 286 286 286 286 286 286 286 286 286 286 286 286 286 286 285 284 284 284 283 283
287 288 287 287 287 287 286 284 283 283 282 282 282 282 282 283 284 285 285 286 286 285 285 285 285 286 286 286 286 286 286 286 287 286 286 286 285 285 285 284 284 283 283
Wind_Speed
20 17 14 11 11 12 17 21 24 28 24 22 21 20 19 17 13 14 18 21 18 19 21 18 17 20 13 27 38 31 24 24 13 13 18 30 28 28 25 23 22 21 18
16 12 11 11 12 13 15 15 17 23 25 22 21 22 18 14 12 14 17 19 13 15 19 20 13 10 20 20 26 32 27 25 23 20 28 28 29 28 27 26 23 21 21
7 10 14 18 18 19 20 19 20 21 22 21 21 23 21 15 14 19 19 18 15 18 18 18 13 21 9 19 23 22 25 23 26 23 18 26 27 29 29 26 23 22 19
11 13 15 18 21 23 25 26 26 26 23 20 21 21 21 17 19 22 21 23 17 16 16 14 17 13 19 14 22 22 26 26 24 24 27 27 26 27 28 28 23 23 21
7 11 15 20 21 20 21 23 26 27 26 24 24 24 24 21 23 24 23 24 18 16 14 13 15 16 16 16 21 24 30 26 24 26 22 23 21 28 27 22 23 25 20
10 13 18 22 24 24 20 19 22 28 29 26 25 27 24 24 24 24 23 25 18 15 15 12 13 14 20 23 15 18 29 31 25 24 22 27 26 29 25 30 28 23 10
9 15 19 23 25 23 22 21 19 20 20 24 26 26 24 24 24 23 24 24 19 14 14 14 9 9 8 20 24 15 17 33 35 33 29 31 31 38 35 31 28 27 16
13 17 20 23 23 19 18 17 14 13 16 19 22 22 21 22 23 23 25 24 19 14 14 15 14 16 15 11 13 15 20 30 30 32 37 37 36 44 44 36 35 26 16
18 22 23 21 21 21 21 18 13 10 13 15 17 17 19 21 23 21 26 26 22 18 17 17 16 17 13 14 13 12 13 24 31 30 29 30 34 37 40 30 32 27 10
23 22 21 19 20 22 19 16 9 10 13 16 18 17 19 21 21 21 27 29 24 22 19 19 20 18 17 13 17 21 24 25 27 24 13 21 27 34 41 38 36 29 19
18 17 21 22 17 13 10 9 8 9 11 12 13 16 18 19 20 17 26 29 27 23 22 21 22 21 17 11 8 11 21 22 24 24 20 21 28 32 36 34 30 36 29
13 12 8 10 8 6 5 5 4 5 5 5 6 7 8 11 11 14 22 30 27 25 25 28 25 18 13 12 14 14 17 19 26 26 21 25 31 32 33 32 30 30 29
11 11 10 10 8 5 5 6 3 3 2 2 2 2 2 5 6 9 22 29 24 25 27 30 26 18 16 16 15 13 12 18 23 23 22 28 33 31 31 32 30 28 26
15 15 15 9 6 3 1 3 2 2 2 2 2 2 3 5 7 11 19 22 21 19 19 20 20 20 17 15 14 14 16 18 21 23 25 23 25 27 28 32 31 30 25
15 18 10 8 6 3 1 3 3 4 4 5 5 5 6 8 12 14 18 19 18 17 17 19 23 22 19 17 15 16 18 18 18 19 21 24 26 27 29 31 29 30 21
15 19 19 11 6 2 4 4 2 4 5 3 4 3 6 8 9 14 16 17 18 19 21 18 18 20 21 20 18 17 17 18 20 19 19 21 24 26 27 25 27 30 26
16 15 10 11 8 9 9 7 4 3 4 2 3 3 4 6 7 13 16 16 19 20 17 17 18 21 22 22 21 21 21 20 19 20 21 23 24 26 28 25 24 24 19
17 14 12 13 13 12 11 9 7 6 6 4 3 2 4 4 7 14 20 19 19 18 19 21 21 21 20 21 21 22 20 19 18 18 18 20 23 25 25 25 25 24 23
14 14 12 14 15 14 12 9 5 5 9 7 5 4 5 5 7 14 23 21 18 17 20 19 20 20 20 19 20 21 20 20 21 19 19 20 21 22 23 23 24 23 21
10 7 5 7 11 11 10 10 8 7 7 7 8 9 8 9 12 18 22 19 23 22 24 23 22 21 19 18 18 19 20 20 19 20 20 19 19 20 20 20 21 21 22
9 7 6 7 10 9 9 9 9 8 9 8 8 9 13 16 16 18 20 19 21 22 23 25 25 24 22 20 18 18 18 20 22 23 22 23 22 22 21 20 19 20 19
9 8 7 7 8 8 7 7 6 7 8 9 8 7 10 15 17 19 21 21 22 21 21 22 24 25 25 24 22 21 20 21 21 21 20 20 21 23 24 22 21 20 20
9 9 5 5 5 5 5 5 6 7 7 7 7 7 8 13 15 17 19 20 20 19 19 19 20 21 21 21 22 22 21 21 21 21 21 20 20 20 22 23 23 22 22
7 6 8 7 7 6 5 4 3 2 4 5 3 2 5 10 12 12 13 16 17 17 17 17 18 18 17 17 16 18 18 17 17 17 18 19 20 20 20 21 22 23 23
8 7 6 5 6 8 8 8 7 8 7 6 5 4 4 6 7 6 7 9 11 14 14 14 14 13 12 13 14 13 14 15 15 14 16 17 18 19 22 22 23 23 23
5 6 7 8 9 10 11 11 10 9 9 8 8 8 8 10 11 11 11 12 13 14 14 13 13 12 12 12 12 12 12 13 14 14 15 17 19 19 20 21 22 23 22
Wind_Direction
245 246 245 252 262 271 278 281 276 267 272 264 256 251 244 248 254 261 264 265 260 264 250 241 254 281 239 192 178 180 168 161 142 137 160 173 170 166 164 161 157 166 160
251 246 254 264 268 269 277 282 279 268 267 267 256 246 248 253 259 261 270 265 254 263 255 251 243 239 220 198 182 165 157 157 149 137 147 157 165 175 165 163 162 163 163
278 284 285 281 270 262 268 270 267 263 263 268 246 241 244 249 256 263 262 249 251 274 260 250 263 256 236 171 169 156 160 157 155 149 143 157 158 170 162 165 165 164 160
325 320 313 305 298 291 283 272 264 258 255 255 245 245 252 260 255 254 248 238 249 252 249 245 239 247 215 204 163 152 148 146 144 144 146 148 154 161 163 155 157 166 157
323 319 317 319 314 301 289 281 270 261 256 251 242 241 246 248 245 243 243 234 236 235 242 236 238 241 234 206 176 163 162 153 148 146 150 154 151 159 167 164 157 165 161
291 304 319 316 306 303 299 295 280 266 257 250 244 242 243 244 245 245 242 232 230 225 226 229 231 225 221 217 203 169 176 160 154 158 166 167 168 172 168 163 156 155 154
283 307 312 312 309 299 290 290 278 269 256 247 245 242 239 244 248 243 235 232 222 216 211 211 202 193 188 206 212 182 188 185 187 174 172 176 171 179 172 167 170 166 163
301 311 311 308 300 290 294 295 287 266 248 249 247 248 245 251 250 243 231 224 219 213 221 207 213 206 204 182 172 193 190 193 200 206 212 198 199 190 191 184 173 161 158
303 302 305 308 293 297 291 281 274 265 263 258 254 257 255 259 258 247 222 216 215 209 214 205 207 205 193 186 186 197 192 198 209 198 215 205 202 194 185 173 163 158 146
290 296 300 298 290 291 283 264 251 246 257 261 261 260 265 264 262 250 215 206 206 203 208 212 211 206 189 181 194 204 189 192 198 199 195 191 193 195 198 199 182 166 157
291 300 304 296 288 291 273 256 254 270 267 263 271 269 263 264 257 241 212 203 201 195 198 193 191 183 181 187 207 208 200 191 185 197 192 187 183 187 194 200 198 191 178
289 300 304 315 302 287 290 285 286 284 284 294 296 294 276 258 250 228 212 212 206 189 184 187 183 187 213 217 194 202 207 206 187 185 190 182 181 188 196 201 202 203 207
270 262 258 292 275 283 310 294 293 291 292 285 281 285 266 233 227 230 216 213 209 201 203 203 206 219 189 185 186 189 195 193 190 185 185 187 194 196 195 197 200 202 209
275 276 282 262 235 237 324 300 319 324 273 261 242 229 211 246 236 211 197 204 205 208 212 211 205 185 183 181 178 189 196 193 190 190 199 208 199 197 197 198 195 198 198
288 286 277 243 226 168 164 258 325 346 296 280 254 236 223 227 225 213 201 198 199 202 186 177 169 169 164 167 176 182 186 190 193 194 189 187 189 189 197 199 198 191 188
296 283 270 236 220 218 202 232 281 319 310 295 284 279 253 258 243 214 211 210 204 198 182 171 172 177 178 178 178 173 183 191 200 198 189 188 184 185 184 188 201 193 190
308 307 238 211 205 212 214 220 239 282 277 284 295 291 248 243 231 207 205 204 199 191 179 172 176 184 192 192 191 191 190 195 197 197 196 195 193 189 186 184 188 188 184
306 308 295 234 211 218 221 229 236 253 272 287 262 259 241 224 202 194 191 185 185 198 197 195 196 197 195 198 200 200 200 195 196 197 196 199 200 198 194 197 198 198 201
300 289 273 249 215 220 216 217 216 253 262 263 264 236 208 197 191 193 192 186 187 189 200 204 205 203 204 209 211 211 212 207 205 201 198 198 200 200 201 204 208 209 206
313 270 217 228 226 220 214 211 213 234 256 261 258 241 209 182 178 179 187 199 198 199 205 210 212 211 209 210 211 213 215 214 211 210 210 209 210 209 206 208 208 203 206
329 328 278 243 228 231 237 240 237 239 249 257 259 256 227 204 193 191 193 202 206 207 212 213 216 216 216 214 215 218 221 222 221 222 222 220 216 211 216 221 218 216 218
316 307 284 253 238 228 233 238 244 247 249 244 244 260 239 222 212 208 207 210 220 222 224 225 224 223 222 221 221 223 225 222 221 218 219 223 223 223 223 220 218 218 222
293 282 266 244 236 230 228 232 243 248 249 244 232 238 229 223 227 222 221 223 226 226 227 225 224 224 227 227 227 228 225 222 221 222 221 220 220 219 218 219 218 217 219
289 270 259 241 224 209 207 193 177 149 145 138 126 174 220 222 222 224 226 228 226 228 224 220 218 219 222 221 223 224 225 226 226 223 222 222 221 221 221 221 222 224 227
273 269 240 215 196 174 160 149 135 127 121 116 106 111 119 157 170 180 192 204 207 207 204 204 204 205 210 214 220 222 222 226 227 224 221 223 225 224 224 225 227 228 230
247 225 211 194 181 166 158 150 138 132 122 114 116 116 115 120 130 139 149 159 161 161 165 167 172 181 187 191 203 211 211 210 214 216 218 221 224 227 226 227 228 226 228